1279756833106,0.618225
1279756893106,0.613249
1279756953106,0.610823
1279757013106,0.616790
1279757073106,0.608891
1279757133106,0.608243
1279757193106,0.603381
1279757253106,0.607280
1279757313106,0.608600
1279757373106,0.604903
1279757433106,0.609787
1279757493106,0.610831
1279757553106,0.603607
1279757613106,0.603829
1279757673106,0.610593
1279757733106,0.607707
1279757793106,0.605731
1279757853106,0.604201
1279757913106,0.604925
1279757973106,0.600735
1279758033106,0.604124
1279758093106,0.602991
1279758153106,0.607956
1279758213106,0.607499
1279758273106,0.612163
1279758333106,0.608679
1279758393106,0.614182
1279758453106,0.618032
1279758513106,0.610032
1279758573106,0.610298
1279758633106,0.622959
1279758693106,0.616267
1279758753106,0.608413
1279758813106,0.610923
1279758873106,0.613171
1279758933106,0.604168
1279758993106,0.614473
1279759053106,0.614423
1279759113106,0.607830
1279759173106,0.603164
1279759233106,0.607142
1279759293106,0.606168
1279759353106,0.604842
1279759413106,0.605593
1279759473106,0.608316
1279759533106,0.607175
1279759593106,0.614820
1279759653106,0.612998
1279759713106,0.609417
1279759773106,0.611821
1279759833106,0.608103
1279759893106,0.613451
1279759953106,0.606786
1279760013106,0.610425
1279760073106,0.608589
1279760133106,0.612634
1279760193106,0.611690
1279760253106,0.608486
1279760313106,0.609734
1279760373106,0.604622
1279760433115,0.608994
1279760493115,0.608999
1279760553115,0.608308
1279760613115,0.606889
1279760673115,0.608712
1279760733115,0.600469
1279760793115,0.608911
1279760853115,0.616985
1279760913115,0.611654
1279760973115,0.611937
1279761033115,0.616650
1279761093115,0.614317
1279761153115,0.617442
1279761213115,0.614753
1279761273115,0.613244
1279761333115,0.619460
1279761393115,0.611160
1279761453115,0.620251
1279761513115,0.620640
1279761573115,0.619735
1279761633115,0.614418
1279761693115,0.608754
1279761753115,0.604738
1279761813115,0.606233
1279761873115,0.614299
1279761933115,0.617033
1279761993115,0.614283
1279762053115,0.618484
1279762113115,0.619384
1279762173115,0.620079
1279762233115,0.620159
1279762293115,0.621267
1279762353115,0.619718
1279762413115,0.617044
1279762473115,0.614055
1279762533115,0.609854
1279762593115,0.611760
1279762653115,0.620506
1279762713115,0.616940
1279762773115,0.624838
1279762833115,0.614899
1279762893115,0.625955
1279762953115,0.619418
1279763013115,0.619223
1279763073115,0.619315
1279763133115,0.621720
1279763193115,0.610130
1279763253115,0.621735
1279763313115,0.620477
1279763373115,0.609578
1279763433115,0.611374
1279763493115,0.610500
1279763553115,0.609969
1279763613115,0.611497
1279763673115,0.614719
1279763733115,0.611402
1279763793115,0.612080
1279763853115,0.611337
1279763913115,0.609483
1279763973115,0.611825
1279764033124,0.613437
1279764093124,0.611269
1279764153124,0.606202
1279764213124,0.605680
1279764273124,0.608154
1279764333124,0.607158
1279764393124,0.609428
1279764453124,0.611397
1279764513124,0.613881
1279764573124,0.615423
1279764633124,0.610882
1279764693124,0.614807
1279764753124,0.620276
1279764813124,0.617340
1279764873124,0.608695
1279764933124,0.620044
1279764993124,0.618174
1279765053124,0.616025
1279765113124,0.614764
1279765173124,0.616614
1279765233124,0.611491
1279765293124,0.613501
1279765353124,0.610982
1279765413124,0.611191
1279765473124,0.606737
1279765533124,0.610070
1279765593124,0.614370
1279765653124,0.614645
1279765713124,0.606646
1279765773124,0.615081
1279765833124,0.620208
1279765893124,0.617796
1279765953124,0.613038
1279766013124,0.615440
1279766073124,0.613447
1279766133124,0.612976
1279766193124,0.615094
1279766253124,0.614824
1279766313124,0.606405
1279766373124,0.608208
1279766433124,0.605598
1279766493124,0.605704
1279766553124,0.605550
1279766613124,0.605993
1279766673124,0.607943
1279766733124,0.606101
1279766793124,0.600186
1279766853124,0.607266
1279766913124,0.608575
1279766973124,0.602809
1279767033124,0.604133
1279767093124,0.602267
1279767153124,0.609112
1279767213124,0.603039
1279767273124,0.609187
1279767333124,0.606533
1279767393124,0.605430
1279767453124,0.607756
1279767513124,0.603213
1279767573124,0.607601
1279767633133,0.605370
1279767693133,0.603400
1279767753133,0.599883
1279767813133,0.603547
1279767873133,0.610204
1279767933133,0.608545
1279767993133,0.608612
1279768053133,0.601594
1279768113133,0.601690
1279768173133,0.605231
1279768233133,0.608513
1279768293133,0.606196
1279768353133,0.603748
1279768413133,0.605393
1279768473133,0.600397
1279768533133,0.601948
1279768593133,0.600938
1279768653133,0.597387
1279768713133,0.605291
1279768773133,0.606730
1279768833133,0.603800
1279768893133,0.606273
1279768953133,0.606604
1279769013133,0.603708
1279769073133,0.609264
1279769133133,0.600211
1279769193133,0.608331
1279769253133,0.610013
1279769313133,0.610140
1279769373133,0.609505
1279769433133,0.608712
1279769493133,0.607789
1279769553133,0.608922
1279769613133,0.610800
1279769673133,0.611117
1279769733133,0.608727
1279769793133,0.609163
1279769853133,0.602392
1279769913133,0.606177
1279769973133,0.608724
1279770033133,0.607924
1279770093133,0.604590
1279770153133,0.607282
1279770213133,0.612207
1279770273133,0.615766
1279770333133,0.618547
1279770393133,0.615811
1279770453133,0.608747
1279770513133,0.614337
1279770573133,0.606092
1279770633133,0.616798
1279770693133,0.605659
1279770753133,0.607533
1279770813133,0.611108
1279770873133,0.610154
1279770933133,0.615216
1279770993133,0.606717
1279771053133,0.614620
1279771113133,0.611437
1279771173133,0.604230
1279771233141,0.609556
1279771293141,0.605218
1279771353141,0.599671
1279771413141,0.608081
1279771473141,0.603972
1279771533141,0.609876
1279771593141,0.608039
1279771653141,0.609473
1279771713141,0.606459
1279771773141,0.604258
1279771833141,0.603810
1279771893141,0.607728
1279771953141,0.601086
1279772013141,0.604914
1279772073141,0.605926
1279772133141,0.604852
1279772193141,0.593879
1279772253141,0.602543
1279772313141,0.604459
1279772373141,0.612590
1279772433141,0.613742
1279772493141,0.602444
1279772553141,0.605210
1279772613141,0.605282
1279772673141,0.610513
1279772733141,0.603359
1279772793141,0.611267
1279772853141,0.608637
1279772913141,0.609834
1279772973141,0.602050
1279773033141,0.608319
1279773093141,0.610278
1279773153141,0.604738
1279773213141,0.607219
1279773273141,0.606581
1279773333141,0.612871
1279773393141,0.607077
1279773453141,0.605170
1279773513141,0.607607
1279773573141,0.613341
1279773633141,0.599861
1279773693141,0.604357
1279773753141,0.599676
1279773813141,0.608654
1279773873141,0.604394
1279773933141,0.609925
1279773993141,0.605911
1279774053141,0.610729
1279774113141,0.608851
1279774173141,0.610476
1279774233141,0.615871
1279774293141,0.607822
1279774353141,0.610463
1279774413141,0.617814
1279774473141,0.612436
1279774533141,0.611998
1279774593141,0.617580
1279774653141,0.623021
1279774713141,0.612778
1279774773141,0.616783
1279774833150,0.615973
1279774893150,0.621902
1279774953150,0.618828
1279775013150,0.616568
1279775073150,0.618971
1279775133150,0.617641
1279775193150,0.621123
1279775253150,0.616760
1279775313150,0.613396
1279775373150,0.612579
1279775433150,0.609448
1279775493150,0.618056
1279775553150,0.615407
1279775613150,0.606922
1279775673150,0.610884
1279775733150,0.609524
1279775793150,0.603885
1279775853150,0.604882
1279775913150,0.607414
1279775973150,0.610681
1279776033150,0.610603
1279776093150,0.616917
1279776153150,0.622650
1279776213150,0.610993
1279776273150,0.607572
1279776333150,0.609233
1279776393150,0.614930
1279776453150,0.620278
1279776513150,0.616970
1279776573150,0.618553
1279776633150,0.613795
1279776693150,0.614587
1279776753150,0.620763
1279776813150,0.610681
1279776873150,0.616539
1279776933150,0.616870
1279776993150,0.618321
1279777053150,0.614030
1279777113150,0.615287
1279777173150,0.615440
1279777233150,0.613360
1279777293150,0.610877
1279777353150,0.607899
1279777413150,0.601976
1279777473150,0.607541
1279777533150,0.615499
1279777593150,0.607033
1279777653150,0.610325
1279777713150,0.611511
1279777773150,0.606484
1279777833150,0.611240
1279777893150,0.608142
1279777953150,0.604050
1279778013150,0.610106
1279778073150,0.613337
1279778133150,0.611143
1279778193150,0.607383
1279778253150,0.611852
1279778313150,0.609054
1279778373150,0.609518
1279778433158,0.611270
1279778493158,0.614638
1279778553158,0.608873
1279778613158,0.610673
1279778673158,0.615392
1279778733158,0.611242
1279778793158,0.607334
1279778853158,0.609760
1279778913158,0.613828
1279778973158,0.610911
1279779033158,0.616429
1279779093158,0.614139
1279779153158,0.612290
1279779213158,0.616977
1279779273158,0.614918
1279779333158,0.612714
1279779393158,0.607759
1279779453158,0.608914
1279779513158,0.606285
1279779573158,0.618118
1279779633158,0.616275
1279779693158,0.611290
1279779753158,0.611045
1279779813158,0.611235
1279779873158,0.614641
1279779933158,0.611104
1279779993158,0.610221
1279780053158,0.603913
1279780113158,0.598466
1279780173158,0.606863
1279780233158,0.617107
1279780293158,0.624147
1279780353158,0.622117
1279780413158,0.624783
1279780473158,0.629073
1279780533158,0.626140
1279780593158,0.632703
1279780653158,0.632771
1279780713158,0.622616
1279780773158,0.620952
1279780833158,0.623241
1279780893158,0.612850
1279780953158,0.616580
1279781013158,0.606962
1279781073158,0.613051
1279781133158,0.609459
1279781193158,0.617322
1279781253158,0.608201
1279781313158,0.608113
1279781373158,0.614384
1279781433158,0.613155
1279781493158,0.608844
1279781553158,0.607809
1279781613158,0.609605
1279781673158,0.605475
1279781733158,0.600697
1279781793158,0.608928
1279781853158,0.606332
1279781913158,0.608897
1279781973158,0.601275
1279782033167,0.605228
1279782093167,0.605956
1279782153167,0.608477
1279782213167,0.610803
1279782273167,0.612780
1279782333167,0.609851
1279782393167,0.611796
1279782453167,0.610134
1279782513167,0.615814
1279782573167,0.610279
1279782633167,0.611230
1279782693167,0.610244
1279782753167,0.612228
1279782813167,0.615426
1279782873167,0.614474
1279782933167,0.610345
1279782993167,0.614460
1279783053167,0.619175
1279783113167,0.614292
1279783173167,0.611548
1279783233167,0.609407
1279783293167,0.613670
1279783353167,0.616418
1279783413167,0.607651
1279783473167,0.605719
1279783533167,0.612388
1279783593167,0.608368
1279783653167,0.612464
1279783713167,0.610672
1279783773167,0.605088
1279783833167,0.612135
1279783893167,0.615825
1279783953167,0.621552
1279784013167,0.624450
1279784073167,0.630084
1279784133167,0.629176
1279784193167,0.634364
1279784253167,0.633777
1279784313167,0.637586
1279784373167,0.629026
1279784433167,0.636733
1279784493167,0.632653
1279784553167,0.627802
1279784613167,0.623571
1279784673167,0.624705
1279784733167,0.626464
1279784793167,0.624418
1279784853167,0.626726
1279784913167,0.621826
1279784973167,0.620985
1279785033167,0.616741
1279785093167,0.619441
1279785153167,0.621337
1279785213167,0.618731
1279785273167,0.611229
1279785333167,0.618030
1279785393167,0.615999
1279785453167,0.621907
1279785513167,0.615391
1279785573167,0.612787
1279785633175,0.610112
1279785693175,0.609564
1279785753175,0.609129
1279785813175,0.619193
1279785873175,0.612798
1279785933175,0.606221
1279785993175,0.610382
1279786053175,0.603415
1279786113175,0.601540
1279786173175,0.608829
1279786233175,0.612786
1279786293175,0.607433
1279786353175,0.604609
1279786413175,0.602170
1279786473175,0.602766
1279786533175,0.604604
1279786593175,0.605298
1279786653175,0.608330
1279786713175,0.605867
1279786773175,0.610837
1279786833175,0.605232
1279786893175,0.600186
1279786953175,0.608634
1279787013175,0.609977
1279787073175,0.604317
1279787133175,0.613242
1279787193175,0.606902
1279787253175,0.607301
1279787313175,0.606397
1279787373175,0.608082
1279787433175,0.609463
1279787493175,0.607356
1279787553175,0.612327
1279787613175,0.609676
1279787673175,0.602054
1279787733175,0.603603
1279787793175,0.607442
1279787853175,0.611096
1279787913175,0.605432
1279787973175,0.601667
1279788033175,0.606830
1279788093175,0.602983
1279788153175,0.605518
1279788213175,0.608328
1279788273175,0.603908
1279788333175,0.603619
1279788393175,0.602141
1279788453175,0.603147
1279788513175,0.602972
1279788573175,0.602267
1279788633175,0.596318
1279788693175,0.602821
1279788753175,0.601404
1279788813175,0.605817
1279788873175,0.608580
1279788933175,0.604264
1279788993175,0.598763
1279789053175,0.608267
1279789113175,0.605053
1279789173175,0.604776
1279789233183,0.606944
1279789293183,0.607128
1279789353183,0.603584
1279789413183,0.606189
1279789473183,0.598755
1279789533183,0.601376
1279789593183,0.611376
1279789653183,0.603413
1279789713183,0.602905
1279789773183,0.604479
1279789833183,0.599363
1279789893183,0.608324
1279789953183,0.599471
1279790013183,0.600531
1279790073183,0.597434
1279790133183,0.600433
1279790193183,0.598094
1279790253183,0.594012
1279790313183,0.599504
1279790373183,0.598001
1279790433183,0.597812
1279790493183,0.593286
1279790553183,0.597847
1279790613183,0.603845
1279790673183,0.599241
1279790733183,0.602702
1279790793183,0.601991
1279790853183,0.602713
1279790913183,0.592104
1279790973183,0.603924
1279791033183,0.600872
1279791093183,0.597787
1279791153183,0.604747
1279791213183,0.603801
1279791273183,0.600220
1279791333183,0.611400
1279791393183,0.606345
1279791453183,0.611089
1279791513183,0.604659
1279791573183,0.608132
1279791633183,0.601680
1279791693183,0.610541
1279791753183,0.607977
1279791813183,0.601302
1279791873183,0.605184
1279791933183,0.600899
1279791993183,0.603501
1279792053183,0.603271
1279792113183,0.599038
1279792173183,0.606138
1279792233183,0.607114
1279792293183,0.601643
1279792353183,0.595538
1279792413183,0.604925
1279792473183,0.606097
1279792533183,0.606721
1279792593183,0.602552
1279792653183,0.601937
1279792713183,0.604189
1279792773183,0.607743
1279792833192,0.606251
1279792893192,0.610626
1279792953192,0.605282
1279793013192,0.608746
1279793073192,0.604793
1279793133192,0.598791
1279793193192,0.609041
1279793253192,0.602889
1279793313192,0.610719
1279793373192,0.607960
1279793433192,0.608865
1279793493192,0.612049
1279793553192,0.615170
1279793613192,0.610690
1279793673192,0.612438
1279793733192,0.611018
1279793793192,0.612794
1279793853192,0.612535
1279793913192,0.612948
1279793973192,0.602577
1279794033192,0.607379
1279794093192,0.611934
1279794153192,0.604166
1279794213192,0.600834
1279794273192,0.601552
1279794333192,0.604624
1279794393192,0.607777
1279794453192,0.616167
1279794513192,0.604569
1279794573192,0.613127
1279794633192,0.615420
1279794693192,0.609490
1279794753192,0.602991
1279794813192,0.607760
1279794873192,0.605120
1279794933192,0.605114
1279794993192,0.613803
1279795053192,0.601913
1279795113192,0.611421
1279795173192,0.601547
1279795233192,0.609495
1279795293192,0.604899
1279795353192,0.601100
1279795413192,0.602437
1279795473192,0.607733
1279795533192,0.606304
1279795593192,0.600703
1279795653192,0.611601
1279795713192,0.607782
1279795773192,0.602263
1279795833192,0.603833
1279795893192,0.597737
1279795953192,0.601311
1279796013192,0.601140
1279796073192,0.605975
1279796133192,0.598609
1279796193192,0.599394
1279796253192,0.605775
1279796313192,0.602752
1279796373192,0.604472
1279796433200,0.606830
1279796493200,0.603898
1279796553200,0.598787
1279796613200,0.601109
1279796673200,0.605500
1279796733200,0.604159
1279796793200,0.605937
1279796853200,0.601860
1279796913200,0.601017
1279796973200,0.596373
1279797033200,0.602040
1279797093200,0.605205
1279797153200,0.606875
1279797213200,0.606979
1279797273200,0.602441
1279797333200,0.598724
1279797393200,0.602350
1279797453200,0.600432
1279797513200,0.604252
1279797573200,0.605065
1279797633200,0.603821
1279797693200,0.603324
1279797753200,0.604053
1279797813200,0.608565
1279797873200,0.602941
1279797933200,0.604034
1279797993200,0.608246
1279798053200,0.606780
1279798113200,0.602151
1279798173200,0.605489
1279798233200,0.602879
1279798293200,0.594577
1279798353200,0.601233
1279798413200,0.599690
1279798473200,0.607651
1279798533200,0.601370
1279798593200,0.608286
1279798653200,0.605491
1279798713200,0.613618
1279798773200,0.606416
1279798833200,0.612078
1279798893200,0.602969
1279798953200,0.615690
1279799013200,0.605453
1279799073200,0.609244
1279799133200,0.606696
1279799193200,0.602932
1279799253200,0.602549
1279799313200,0.604780
1279799373200,0.609698
1279799433200,0.605135
1279799493200,0.601628
1279799553200,0.603892
1279799613200,0.606396
1279799673200,0.607137
1279799733200,0.601890
1279799793200,0.600873
1279799853200,0.609369
1279799913200,0.599342
1279799973200,0.594296
1279800033208,0.600939
1279800093208,0.603875
1279800153208,0.594323
1279800213208,0.601268
1279800273208,0.601388
1279800333208,0.599813
1279800393208,0.607260
1279800453208,0.595742
1279800513208,0.597952
1279800573208,0.606163
1279800633208,0.605506
1279800693208,0.603297
1279800753208,0.608904
1279800813208,0.615076
1279800873208,0.623886
1279800933208,0.635056
1279800993208,0.634218
1279801053208,0.637702
1279801113208,0.645301
1279801173208,0.648757
1279801233208,0.640579
1279801293208,0.649616
1279801353208,0.649664
1279801413208,0.647222
1279801473208,0.639787
1279801533208,0.640761
1279801593208,0.646576
1279801653208,0.630192
1279801713208,0.627613
1279801773208,0.629102
1279801833208,0.628447
1279801893208,0.620316
1279801953208,0.624585
1279802013208,0.618371
1279802073208,0.619518
1279802133208,0.619466
1279802193208,0.612103
1279802253208,0.615176
1279802313208,0.614664
1279802373208,0.604718
1279802433208,0.613924
1279802493208,0.607113
1279802553208,0.606557
1279802613208,0.603254
1279802673208,0.609183
1279802733208,0.611715
1279802793208,0.607046
1279802853208,0.609044
1279802913208,0.607925
1279802973208,0.605178
1279803033208,0.605418
1279803093208,0.602845
1279803153208,0.604897
1279803213208,0.602942
1279803273208,0.613178
1279803333208,0.605256
1279803393208,0.607950
1279803453208,0.612279
1279803513208,0.609803
1279803573208,0.602751
1279803633217,0.609350
1279803693217,0.608704
1279803753217,0.612555
1279803813217,0.610294
1279803873217,0.611364
1279803933217,0.608842
1279803993217,0.600059
1279804053217,0.607533
1279804113217,0.605596
1279804173217,0.612950
1279804233217,0.604818
1279804293217,0.606153
1279804353217,0.609494
1279804413217,0.612410
1279804473217,0.613875
1279804533217,0.612539
1279804593217,0.608651
1279804653217,0.610797
1279804713217,0.606501
1279804773217,0.615511
1279804833217,0.605817
1279804893217,0.605836
1279804953217,0.607006
1279805013217,0.609595
1279805073217,0.602375
1279805133217,0.602698
1279805193217,0.601476
1279805253217,0.608943
1279805313217,0.601122
1279805373217,0.607644
1279805433217,0.610629
1279805493217,0.610020
1279805553217,0.606926
1279805613217,0.610460
1279805673217,0.608533
1279805733217,0.607584
1279805793217,0.607096
1279805853217,0.613307
1279805913217,0.615278
1279805973217,0.613183
1279806033217,0.609796
1279806093217,0.607853
1279806153217,0.606255
1279806213217,0.607542
1279806273217,0.609086
1279806333217,0.611108
1279806393217,0.606951
1279806453217,0.610355
1279806513217,0.606449
1279806573217,0.613633
1279806633217,0.613503
1279806693217,0.615759
1279806753217,0.615280
1279806813217,0.619660
1279806873217,0.619965
1279806933217,0.620402
1279806993217,0.617803
1279807053217,0.611235
1279807113217,0.616199
1279807173217,0.617019
1279807233225,0.611762
1279807293225,0.610985
1279807353225,0.615638
1279807413225,0.617586
1279807473225,0.609539
1279807533225,0.615968
1279807593225,0.612285
1279807653225,0.612988
1279807713225,0.616318
1279807773225,0.611998
1279807833225,0.617461
1279807893225,0.615903
1279807953225,0.607975
1279808013225,0.611446
1279808073225,0.603689
1279808133225,0.610383
1279808193225,0.618450
1279808253225,0.614451
1279808313225,0.613738
1279808373225,0.605525
1279808433225,0.605497
1279808493225,0.616645
1279808553225,0.606689
1279808613225,0.613567
1279808673225,0.613128
1279808733225,0.615690
1279808793225,0.609007
1279808853225,0.606113
1279808913225,0.608153
1279808973225,0.610420
1279809033225,0.605225
1279809093225,0.612535
1279809153225,0.608881
1279809213225,0.612761
1279809273225,0.614369
1279809333225,0.609868
1279809393225,0.606423
1279809453225,0.602455
1279809513225,0.601907
1279809573225,0.601842
1279809633225,0.603899
1279809693225,0.602305
1279809753225,0.601449
1279809813225,0.596212
1279809873225,0.602416
1279809933225,0.606132
1279809993225,0.605006
1279810053225,0.598528
1279810113225,0.603864
1279810173225,0.597561
1279810233225,0.593782
1279810293225,0.596820
1279810353225,0.596609
1279810413225,0.600280
1279810473225,0.601598
1279810533225,0.591006
1279810593225,0.595570
1279810653225,0.601082
1279810713225,0.597482
1279810773225,0.601018
1279810833234,0.598108
1279810893234,0.595725
1279810953234,0.599865
1279811013234,0.602120
1279811073234,0.601139
1279811133234,0.600312
1279811193234,0.604376
1279811253234,0.603526
1279811313234,0.603258
1279811373234,0.600269
1279811433234,0.605150
1279811493234,0.599917
1279811553234,0.608173
1279811613234,0.606913
1279811673234,0.613462
1279811733234,0.617761
1279811793234,0.618767
1279811853234,0.620116
1279811913234,0.623996
1279811973234,0.630399
1279812033234,0.623835
1279812093234,0.618956
1279812153234,0.619396
1279812213234,0.614138
1279812273234,0.613823
1279812333234,0.616006
1279812393234,0.604733
1279812453234,0.605949
1279812513234,0.608944
1279812573234,0.608685
1279812633234,0.602500
1279812693234,0.603919
1279812753234,0.607488
1279812813234,0.597297
1279812873234,0.602676
1279812933234,0.605006
1279812993234,0.608303
1279813053234,0.602738
1279813113234,0.594855
1279813173234,0.598767
1279813233234,0.601473
1279813293234,0.599787
1279813353234,0.603069
1279813413234,0.601067
1279813473234,0.599171
1279813533234,0.601470
1279813593234,0.608334
1279813653234,0.602327
1279813713234,0.599693
1279813773234,0.602493
1279813833234,0.601042
1279813893234,0.600651
1279813953234,0.604112
1279814013234,0.600827
1279814073234,0.600905
1279814133234,0.605129
1279814193234,0.604426
1279814253234,0.596468
1279814313234,0.602401
1279814373234,0.606827
1279814433243,0.608404
1279814493243,0.603542
1279814553243,0.611767
1279814613243,0.608450
1279814673243,0.613031
1279814733243,0.613240
1279814793243,0.615776
1279814853243,0.618487
1279814913243,0.617681
1279814973243,0.618993
1279815033243,0.612970
1279815093243,0.622260
1279815153243,0.619439
1279815213243,0.617847
1279815273243,0.614897
1279815333243,0.610392
1279815393243,0.617510
1279815453243,0.612996
1279815513243,0.616170
1279815573243,0.610077
1279815633243,0.615555
1279815693243,0.609085
1279815753243,0.606642
1279815813243,0.609632
1279815873243,0.615176
1279815933243,0.614192
1279815993243,0.606619
1279816053243,0.609685
1279816113243,0.611999
1279816173243,0.608119
1279816233243,0.607038
1279816293243,0.599055
1279816353243,0.607584
1279816413243,0.603974
1279816473243,0.607546
1279816533243,0.601847
1279816593243,0.607792
1279816653243,0.604309
1279816713243,0.609986
1279816773243,0.608392
1279816833243,0.602881
1279816893243,0.604729
1279816953243,0.608898
1279817013243,0.611013
1279817073243,0.608286
1279817133243,0.605862
1279817193243,0.606503
1279817253243,0.605398
1279817313243,0.609675
1279817373243,0.603126
1279817433243,0.602247
1279817493243,0.607959
1279817553243,0.607692
1279817613243,0.600327
1279817673243,0.599952
1279817733243,0.602217
1279817793243,0.605822
1279817853243,0.604358
1279817913243,0.603926
1279817973243,0.605681
1279818033253,0.602927
1279818093253,0.602222
1279818153253,0.605203
1279818213253,0.606844
1279818273253,0.602921
1279818333253,0.599560
1279818393253,0.609019
1279818453253,0.614434
1279818513253,0.610983
1279818573253,0.603012
1279818633253,0.599986
1279818693253,0.601650
1279818753253,0.602795
1279818813253,0.608157
1279818873253,0.600089
1279818933253,0.602647
1279818993253,0.605061
1279819053253,0.595366
1279819113253,0.599022
1279819173253,0.603728
1279819233253,0.600393
1279819293253,0.607227
1279819353253,0.613102